sat.trackr.live / text

‹ back to catalog

STARLINK-36644

NORAD 67821 · 2026-033A

PAYLOAD ACTIVE UNKNOWN

§ Identity

Operator
Country
US
Launch date
2026-02-16
Launch site
AFETR
Launch vehicle
Mass (kg)
RCS (m²)

Purposes: comms

External: N2YO · Heavens-Above · Gunter

§ Orbital elements

Epoch: 2026-09-19T16:23:27.471840Z

Period
94.26 min
Inclination
43.0035°
Eccentricity
0.0003715
Mean motion
15.27633978 rev/d
Perigee alt
480.3 km
Apogee alt
485.4 km
Semi-major
6,861.0 km
B*
7.4126e-4
RAAN
251.4103°
Arg perigee
272.5569°
Mean anomaly
87.4857°
Rev number
3,434

§ Raw data

STARLINK-366441 67821U 26033A   26262.68295685  .00020228  00000+0  74126-3 0  99912 67821  43.0035 251.4103 0003715 272.5569  87.4857 15.27633978 34343

JSON: /api/v1/satellites/67821 · /tle

For live sub-satellite position, see the globe view (requires WebGL).

§ Visibility from observer

Set your observer location to see the next 7 days of passes ≥ 10°. The values pass through the URL so the page stays shareable.

No JS? Fill the form by hand. The geolocation button needs JavaScript.